Location: Dana
(41.8364°N, 106.7042°W)
Time: 14:10:52
(UTC+00:00)

Altair - Pass Details

Date: 12 May 2026
Orbit: 1501 x 1682 km, 47.2° (Epoch: 6 June)

Event Time Altitude Azimuth Distance (km) Brightness Sun altitude
Rises 13:59:15 0° 251° (WSW) 4,861 9.5 22.3°
Reaches altitude 10° 14:02:22 10° 253° (WSW) 3,894 9.1 22.9°
Maximum altitude 14:12:27 78° 340° (NNW) 1,710 8.2 24.8°
Drops below altitude 10° 14:22:41 10° 68° (ENE) 3,944 11.0 26.7°
Sets 14:25:52 0° 70° (ENE) 4,926 11.2 27.3°
